Change the Weather History Date:

Thursday, October 25, 2012

  Actual Average Record
Temperature  
Mean Temperature 54 °F -  
Max Temperature 69 °F 56 °F 73 °F (2011)
Min Temperature 39 °F 38 °F 23 °F (2006)
Degree Days  
Heating Degree Days 11    
Growing Degree Days 4 (Base 50)    
Moisture  
Dew Point 50 °F    
Average Humidity 84    
Maximum Humidity 93    
Minimum Humidity 70    
Precipitation  
Precipitation 0.08 in - - ()
Sea Level Pressure  
Sea Level Pressure 29.81 in    
Wind  
Wind Speed 15 mph (West)    
Max Wind Speed 25 mph    
Max Gust Speed 34 mph    
Visibility 9 miles    
Events Rain    
Averages and records for this station are not official NWS values.
T = Trace of Precipitation, MM = Missing Value Source: NWS Daily Summary

Daily Weather History Graph

Daily Weather History Graph

Search for Another Location

Airport or City:

Trip Planner

Search our weather history database for the weather conditions in past years. The results will help you decide how hot, cold, wet, or windy it might be!

Date:

Astronomy

Oct. 25, 2012 Rise Set
Actual Time 7:29 AM CDT 6:06 PM CDT
Civil Twilight 7:01 AM CDT 6:35 PM CDT
Nautical Twilight 6:28 AM CDT 7:08 PM CDT
Astronomical Twilight 5:55 AM CDT 7:40 PM CDT
Moon 3:56 PM CDT (10/25) 3:22 AM CDT (10/25)
Length of Visible Light 11h 34m
Length of Day
10h 37m
Waxing Gibbous, 84% of the Moon is Illuminated
Oct 25
Waxing Gibbous
Oct 29
Full
Nov 6
Last Quarter
Nov 13
New
Nov 20
First Quarter

Hourly Weather History & Observations

Time (CDT) Temp. Windchill Dew Point Humidity Pressure Visibility Wind Dir Wind Speed Gust Speed Precip Events Conditions
12:15 AM 69.8 °F - 64.4 °F 83% 29.71 in 10.0 mi SSE 9.2 mph - N/A   Clear
12:35 AM 69.8 °F - 64.4 °F 83% 29.70 in 10.0 mi SSE 8.1 mph - N/A   Clear
12:55 AM 69.8 °F - 64.4 °F 83% 29.70 in 10.0 mi SSE 8.1 mph - N/A   Clear
1:15 AM 68.0 °F - 64.4 °F 88% 29.69 in 10.0 mi SSE 9.2 mph - N/A   Clear
1:35 AM 68.0 °F - 64.4 °F 88% 29.69 in 10.0 mi South 8.1 mph - N/A   Clear
1:55 AM 68.0 °F - 64.4 °F 88% 29.68 in 10.0 mi South 9.2 mph - N/A   Clear
2:35 AM 69.8 °F - 64.4 °F 83% 29.67 in 10.0 mi South 11.5 mph - N/A   Overcast
2:55 AM 69.8 °F - 64.4 °F 83% 29.67 in 10.0 mi South 15.0 mph 21.9 mph N/A   Overcast
3:15 AM 69.8 °F - 64.4 °F 83% 29.68 in 10.0 mi South 15.0 mph - N/A   Overcast
3:35 AM 69.8 °F - 64.4 °F 83% 29.67 in 10.0 mi South 15.0 mph 21.9 mph N/A   Mostly Cloudy
3:55 AM 69.8 °F - 64.4 °F 83% 29.66 in 10.0 mi South 15.0 mph 20.7 mph N/A   Mostly Cloudy
4:15 AM 69.8 °F - 64.4 °F 83% 29.65 in 10.0 mi South 15.0 mph 20.7 mph N/A   Scattered Clouds
4:35 AM 69.8 °F - 64.4 °F 83% 29.65 in 10.0 mi South 10.4 mph - N/A   Scattered Clouds
4:55 AM 69.8 °F - 64.4 °F 83% 29.65 in 10.0 mi South 13.8 mph - N/A   Clear
5:15 AM 69.8 °F - 64.4 °F 83% 29.63 in 10.0 mi South 16.1 mph 21.9 mph N/A   Clear
5:35 AM 69.8 °F - 62.6 °F 78% 29.63 in 10.0 mi South 17.3 mph 23.0 mph N/A   Clear
5:55 AM 69.8 °F - 62.6 °F 78% 29.65 in 10.0 mi South 17.3 mph 20.7 mph N/A   Clear
6:55 AM 69.8 °F - 62.6 °F 78% 29.64 in 10.0 mi South 17.3 mph 24.2 mph N/A   Scattered Clouds
7:15 AM 69.8 °F - 62.6 °F 78% 29.63 in 10.0 mi South 18.4 mph 25.3 mph N/A   Scattered Clouds
7:35 AM 69.8 °F - 62.6 °F 78% 29.62 in 10.0 mi South 19.6 mph 27.6 mph N/A   Mostly Cloudy
7:55 AM 69.8 °F - 62.6 °F 78% 29.62 in 10.0 mi South 20.7 mph 26.5 mph N/A   Overcast
8:35 AM 69.8 °F - 62.6 °F 78% 29.63 in 10.0 mi South 17.3 mph 25.3 mph N/A   Overcast
8:55 AM 69.8 °F - 64.4 °F 83% 29.62 in 10.0 mi South 16.1 mph 25.3 mph N/A   Mostly Cloudy
9:15 AM 69.8 °F - 64.4 °F 83% 29.61 in 10.0 mi South 17.3 mph 28.8 mph N/A   Scattered Clouds
9:55 AM 69.8 °F - 64.4 °F 83% 29.62 in 10.0 mi South 19.6 mph 28.8 mph N/A   Mostly Cloudy
10:15 AM 69.8 °F - 64.4 °F 83% 29.61 in 10.0 mi South 24.2 mph 29.9 mph N/A   Overcast
10:55 AM 64.4 °F - 60.8 °F 88% 29.62 in 10.0 mi West 20.7 mph 26.5 mph N/A Rain Rain
11:15 AM 60.8 °F - 57.2 °F 88% 29.64 in 10.0 mi West 17.3 mph 20.7 mph N/A   Overcast
11:35 AM 55.4 °F - 51.8 °F 88% 29.67 in 10.0 mi WNW 18.4 mph 25.3 mph N/A   Overcast
11:55 AM 53.6 °F - 50.0 °F 88% 29.68 in 2.5 mi WNW 19.6 mph 27.6 mph N/A Rain Rain
12:15 PM 51.8 °F - 48.2 °F 88% 29.69 in 3.0 mi WNW 19.6 mph 24.2 mph N/A   Light Drizzle
12:35 PM 48.2 °F - 46.4 °F 93% 29.71 in 2.5 mi WNW 19.6 mph - 0.01 in Rain Light Rain
12:55 PM 48.2 °F - 44.6 °F 87% 29.71 in 3.0 mi WNW 20.7 mph 26.5 mph 0.01 in Rain Rain
1:35 PM 46.4 °F 39.0 °F 44.6 °F 93% 29.74 in 4.0 mi WNW 19.6 mph 28.8 mph 0.06 in Rain Light Rain
1:55 PM 46.4 °F 39.5 °F 42.8 °F 87% 29.75 in 10.0 mi NW 17.3 mph 27.6 mph 0.06 in   Overcast
2:15 PM 46.4 °F 38.7 °F 42.8 °F 87% 29.77 in 10.0 mi WNW 20.7 mph 28.8 mph N/A   Overcast
2:35 PM 44.6 °F 35.5 °F 42.8 °F 93% 29.76 in 7.0 mi WNW 25.3 mph 31.1 mph N/A   Overcast
3:15 PM 44.6 °F 35.7 °F 41.0 °F 87% 29.81 in 10.0 mi NW 24.2 mph 31.1 mph N/A   Light Drizzle
3:35 PM 42.8 °F 33.3 °F 39.2 °F 87% 29.83 in 10.0 mi WNW 24.2 mph 29.9 mph 0.01 in Rain Light Rain
3:55 PM 42.8 °F 34.5 °F 39.2 °F 87% 29.85 in 10.0 mi NW 18.4 mph 29.9 mph 0.01 in   Overcast
4:15 PM 42.8 °F 34.8 °F 39.2 °F 87% 29.87 in 10.0 mi NW 17.3 mph 28.8 mph N/A   Overcast
4:35 PM 44.6 °F 37.2 °F 39.2 °F 81% 29.89 in 10.0 mi NW 17.3 mph 26.5 mph N/A   Overcast
4:55 PM 44.6 °F 36.9 °F 39.2 °F 81% 29.90 in 10.0 mi NW 18.4 mph 25.3 mph N/A   Overcast
5:15 PM 44.6 °F 36.6 °F 39.2 °F 81% 29.92 in 10.0 mi NW 19.6 mph 27.6 mph N/A   Overcast
5:35 PM 44.6 °F 36.9 °F 39.2 °F 81% 29.94 in 10.0 mi WNW 18.4 mph 24.2 mph N/A   Overcast
5:55 PM 44.6 °F 37.4 °F 39.2 °F 81% 29.95 in 10.0 mi NW 16.1 mph 26.5 mph N/A   Overcast
6:15 PM 44.6 °F 36.6 °F 39.2 °F 81% 29.97 in 10.0 mi NW 19.6 mph 28.8 mph N/A   Overcast
6:35 PM 42.8 °F 34.0 °F 39.2 °F 87% 29.99 in 10.0 mi WNW 20.7 mph 27.6 mph N/A   Overcast
6:55 PM 42.8 °F 33.8 °F 37.4 °F 81% 30.01 in 10.0 mi NW 21.9 mph 34.5 mph N/A   Overcast
7:15 PM 41.0 °F 31.9 °F 35.6 °F 81% 30.03 in 10.0 mi NW 19.6 mph 33.4 mph N/A   Overcast
7:35 PM 41.0 °F 31.4 °F 35.6 °F 81% 30.05 in 10.0 mi NW 21.9 mph 31.1 mph N/A   Overcast
7:55 PM 39.2 °F 29.6 °F 35.6 °F 87% 30.06 in 10.0 mi NW 19.6 mph 28.8 mph N/A   Overcast
8:15 PM 41.0 °F 32.2 °F 35.6 °F 81% 30.07 in 10.0 mi NW 18.4 mph 34.5 mph N/A   Overcast
8:35 PM 39.2 °F 29.8 °F 35.6 °F 87% 30.09 in 10.0 mi NW 18.4 mph 28.8 mph N/A   Overcast
8:55 PM 39.2 °F 29.6 °F 33.8 °F 81% 30.09 in 10.0 mi NW 19.6 mph 29.9 mph N/A   Mostly Cloudy
9:15 PM 39.2 °F 32.0 °F 33.8 °F 81% 30.11 in 10.0 mi NW 11.5 mph - N/A   Overcast
9:35 PM 39.2 °F 29.3 °F 35.6 °F 87% 30.12 in 10.0 mi WNW 20.7 mph 28.8 mph N/A   Overcast
9:55 PM 39.2 °F 30.8 °F 35.6 °F 87% 30.13 in 10.0 mi NW 15.0 mph 25.3 mph N/A   Overcast
10:15 PM 39.2 °F 29.8 °F 33.8 °F 81% 30.13 in 10.0 mi NW 18.4 mph 28.8 mph N/A   Overcast
10:35 PM 39.2 °F 28.7 °F 33.8 °F 81% 30.14 in 10.0 mi NW 23.0 mph 29.9 mph N/A   Overcast
10:55 PM 39.2 °F 29.8 °F 33.8 °F 81% 30.15 in 10.0 mi NW 18.4 mph 32.2 mph N/A   Overcast
11:15 PM 39.2 °F 29.6 °F 32.0 °F 75% 30.17 in 10.0 mi NW 19.6 mph 32.2 mph N/A   Overcast
11:55 PM 39.2 °F 29.6 °F 30.2 °F 70% 30.19 in 10.0 mi NW 19.6 mph 28.8 mph N/A   Overcast